Vorticity
nan nan nan nan nan nan nan nan nan nan nan nan nan nan nan nan nan nan nan nan nan nan nan nan nan nan nan nan nan nan nan nan nan nan nan nan nan nan nan nan nan nan nan nan
nan 7 5 0 9 6 8 3 11 6 4 7 4 10 8 10 9 8 10 7 7 9 6 8 9 9 10 9 10 8 9 10 6 6 6 8 10 8 6 9 9 13 9 nan
nan 6 9 9 2 5 3 7 7 -2 9 15 -2 13 3 12 9 11 9 8 8 7 9 4 9 8 10 9 10 11 10 9 5 6 10 8 5 10 9 7 8 7 5 nan
nan 10 11 4 6 7 2 10 3 7 2 2 16 16 17 8 7 11 9 10 8 9 6 12 11 10 8 8 8 10 11 7 7 7 6 7 6 6 5 7 9 7 9 nan
nan 11 8 12 7 -1 8 9 2 8 10 9 22 5 27 2 14 11 10 10 10 11 11 7 9 17 10 10 7 8 11 8 8 8 6 8 9 7 5 8 8 11 10 nan
nan 9 11 9 5 7 6 6 10 7 9 12 12 3 8 13 12 15 17 10 10 7 9 10 13 10 13 10 8 8 9 9 10 8 9 8 8 5 8 7 8 10 8 nan
nan 8 11 12 6 11 7 1 7 13 9 20 -3 4 10 10 3 16 14 11 9 8 10 8 10 9 10 10 8 7 7 8 9 9 11 10 8 9 6 6 8 8 8 nan
nan 12 11 8 11 7 9 3 3 2 2 -4 8 23 6 12 14 12 13 13 8 6 8 11 9 10 11 9 9 8 7 7 8 9 8 9 13 10 9 7 5 11 9 nan
nan 14 9 8 12 8 7 4 0 19 16 -6 10 11 9 6 6 11 14 9 7 9 5 9 11 10 11 11 9 9 8 7 8 10 8 9 4 4 11 10 8 10 10 nan
nan 17 17 9 10 10 -1 9 19 9 7 14 9 10 12 10 6 12 13 8 7 7 7 8 9 9 11 12 11 10 9 9 9 8 7 8 7 8 7 7 9 7 8 nan
nan 12 16 9 12 6 9 4 1 10 9 9 6 10 9 12 16 15 10 10 9 5 8 8 9 9 10 11 11 10 9 7 9 8 7 7 7 8 9 8 7 7 8 nan
nan 8 10 15 5 11 9 3 3 9 3 9 2 16 7 3 16 16 14 14 9 6 8 8 8 9 8 10 8 8 10 9 8 8 8 8 8 7 8 7 6 6 6 nan
nan 2 12 18 11 8 1 5 11 6 6 12 19 7 2 11 18 17 17 13 7 8 9 7 7 8 7 8 8 10 7 8 8 6 11 8 8 7 6 8 5 6 6 nan
nan 4 8 17 14 10 7 2 8 5 13 1 13 18 24 10 9 10 13 13 8 9 9 8 7 7 7 9 8 8 9 9 7 6 9 7 6 5 5 8 7 4 7 nan
nan 7 1 4 17 19 8 16 13 7 6 7 12 4 10 14 18 14 11 11 13 11 7 9 9 9 8 8 8 9 9 7 8 9 6 5 5 6 5 6 7 7 7 nan
nan 4 10 6 7 14 13 -7 7 23 10 20 6 6 2 7 14 13 13 11 12 12 9 8 6 10 12 9 9 10 10 9 8 8 6 7 5 6 8 7 8 9 9 nan
nan 7 12 1 9 7 5 10 9 6 9 1 5 16 11 8 5 12 15 14 15 13 11 12 8 7 11 11 11 10 11 11 9 7 6 7 7 6 7 9 12 12 10 nan
nan 9 5 9 16 7 4 19 13 5 3 7 7 -1 12 14 10 14 16 17 15 13 9 7 14 17 15 15 12 10 11 10 8 7 7 8 10 11 11 11 11 10 10 nan
nan 6 6 1 8 23 11 3 8 10 9 15 11 12 9 9 -2 9 18 21 16 9 11 11 12 10 11 13 12 14 12 11 10 10 7 8 12 11 12 12 9 10 11 nan
nan 11 5 12 8 12 24 14 6 1 13 13 16 13 13 10 7 11 12 14 16 11 7 10 16 7 2 10 14 16 9 8 7 11 12 10 10 9 9 9 10 9 9 nan
nan 15 11 7 12 4 10 26 15 11 5 11 15 15 19 10 26 19 10 9 7 9 10 8 11 10 7 8 7 12 12 10 8 9 9 8 8 10 10 9 11 10 10 nan
nan 12 16 12 14 7 6 12 5 15 12 10 12 14 19 20 16 11 10 10 10 9 6 6 7 8 10 11 13 9 9 6 10 9 8 9 9 12 10 10 11 12 13 nan
nan 11 15 21 18 12 9 12 16 8 12 10 17 18 11 11 10 10 10 10 8 7 5 6 7 7 10 11 11 8 7 8 9 10 10 11 10 10 12 11 13 11 13 nan
nan 5 14 -1 2 23 12 6 9 10 12 15 15 10 10 9 9 8 9 10 6 5 9 10 8 7 7 8 10 8 8 10 11 10 9 11 11 10 10 12 12 12 12 nan
nan 7 7 17 19 5 10 8 10 9 10 14 11 10 10 9 7 7 7 8 11 11 12 10 9 8 8 7 7 8 9 11 11 10 10 12 10 10 11 12 10 14 12 nan
nan nan nan nan nan nan nan nan nan nan nan nan nan nan nan nan nan nan nan nan nan nan nan nan nan nan nan nan nan nan nan nan nan nan nan nan nan nan nan nan nan nan nan nan
CAPE
0 0 39 75 92 17 36 20 51 58 40 36 85 66 194 826 991 1153 1254 1623 1602 1498 1378 1595 1727 1866 1916 2114 2380 2918 2744 3226 2785 2696 2186 2224 2093 1999 2532 1620 1161 1556 1593 2593
0 0 15 58 42 55 7 21 87 65 67 22 176 71 137 546 888 1084 1144 1497 1437 1500 1222 1448 1734 1713 1997 2277 2478 2832 2879 3057 3065 2557 2209 1912 2028 1750 1506 255 847 1096 1228 1396
0 0 4 92 163 51 47 54 27 40 1 14 39 59 101 351 794 1056 1248 1207 1330 1347 1135 1133 1511 1786 2109 2258 2359 2768 3054 3365 3249 2106 2352 2574 2480 2276 729 645 743 546 513 592
0 0 6 78 116 38 91 23 4 0 23 129 256 97 254 446 731 1120 1242 1239 1243 1200 1126 1230 1558 1897 2151 2231 2197 2431 2821 3168 3028 2194 2542 2578 2391 1731 610 779 912 1114 1356 1477
0 0 3 65 41 82 112 2 3 8 33 113 130 112 195 80 208 902 981 1144 1187 956 1003 1034 828 1415 1691 2355 2218 2450 2841 2847 2391 2741 3445 2729 2503 2162 1204 1331 1205 1594 2133 1604
0 0 2 3 22 65 89 9 0 42 48 71 141 113 142 9 165 437 814 1020 1041 674 627 724 587 792 1501 2112 1923 2438 3049 3250 3186 3262 2867 2812 2857 2468 2094 1602 1236 1075 764 554
0 0 0 0 24 65 14 11 105 194 103 111 130 63 87 39 23 195 673 951 794 614 597 797 726 1142 1886 2203 2087 2495 2840 2911 2662 2583 2798 3102 2963 2915 1783 1846 1155 1637 684 413
0 0 0 0 20 165 14 27 117 227 267 87 2 101 143 127 151 378 489 828 655 690 941 731 1070 2014 2240 2435 2466 2526 2682 2847 2856 2835 2739 2831 2709 1535 1426 1646 1595 1068 439 291
0 0 0 0 0 38 99 40 53 117 85 214 77 125 51 232 375 497 491 822 642 1074 846 799 1294 2045 2467 2563 2668 2540 2812 2893 3154 2764 3571 2399 1902 2087 2214 1676 1422 226 92 28
1 9 15 2 5 0 8 39 65 89 97 72 97 71 207 420 590 655 621 886 813 1322 888 959 1226 1718 2213 2532 2653 2677 2893 3259 3196 3105 2337 1895 2003 1865 985 356 248 124 88 158
0 7 89 51 0 0 8 0 20 49 26 110 103 176 171 204 349 747 754 871 942 1498 1182 1334 1443 1793 2126 2395 2568 2784 3129 3235 2625 1848 1607 1735 1099 406 174 0 0 80 173 279
0 2 179 22 5 0 19 32 26 75 53 43 89 88 35 265 340 573 713 785 1150 1664 1536 1924 2167 2354 2458 2474 2789 2848 2726 2098 1611 1716 1211 848 500 164 0 0 22 59 202 278
0 0 87 82 15 40 39 80 77 65 89 233 352 409 138 270 455 580 684 926 1394 1804 1745 2356 2555 2642 2517 2639 2709 2524 2173 1679 1712 1467 718 308 297 287 164 112 203 357 575 671
0 0 62 97 117 61 19 14 76 48 65 227 143 49 209 363 510 638 673 980 1331 1952 2203 2332 2574 2579 2476 2682 2821 2783 2528 2182 1277 1454 404 425 409 442 481 674 803 868 985 897
0 0 27 2 0 9 4 38 84 68 161 364 122 14 57 185 438 792 925 1137 1422 2253 2549 2638 2492 2600 2874 2978 3114 2940 2671 2136 1572 1277 762 917 1053 1238 1496 1564 1379 1087 1069 929
0 15 100 29 8 2 12 20 30 41 55 275 77 266 443 283 532 798 929 1328 1846 2499 2780 2605 2185 2472 3028 3040 3017 2861 2686 2250 1842 1527 1320 1503 1705 1782 1637 1583 1474 1398 1226 1178
0 0 199 179 69 11 7 0 36 141 109 78 138 529 303 431 876 818 1017 1349 1790 2751 2905 3035 2391 2494 2844 2765 2460 2361 2226 1586 1332 975 1206 1602 1735 1602 1543 1616 1512 1376 1053 830
0 3 201 305 303 267 70 52 13 76 82 53 104 72 236 1028 1311 1166 1154 1572 2063 2989 2754 2620 2023 1461 1521 1616 1722 2372 2394 1658 1268 1274 1327 1439 1473 1589 1678 1405 1219 1282 1333 1093
7 109 203 241 206 270 71 198 165 123 75 63 90 100 320 1455 2019 1828 1606 1669 2304 2886 2141 1589 1345 1599 2109 1936 2528 2266 2193 1742 1576 1363 1508 1630 1968 1964 1724 1218 1103 859 655 589
51 62 99 246 253 258 111 216 88 155 276 163 247 298 289 921 1237 2485 2210 2666 2678 2249 1673 1447 1407 1632 1840 2121 2026 1791 1813 1836 1506 1965 1715 1289 1036 842 852 415 275 386 98 18
122 141 101 182 204 117 621 351 522 354 845 1154 972 1089 1112 1494 2947 2614 2408 2198 2070 1855 1503 1529 1644 1736 1621 1640 1732 1748 998 1432 948 970 778 530 293 83 20 10 10 5 3 5
375 401 187 199 453 662 557 602 391 1615 1580 1671 1445 1449 2954 2560 2521 2357 2079 1778 1362 1283 1249 1065 1262 1333 968 1464 821 636 233 175 154 123 52 2 0 0 0 0 4 4 7 30
1127 1052 613 505 1124 1298 1030 1326 1345 1248 2026 1707 1936 2365 2241 2125 2253 2187 1973 1608 1524 1343 1042 943 807 486 326 202 133 23 1 0 0 0 0 0 0 0 0 0 0 1 19 4
746 929 239 61 703 735 928 1092 1091 1110 1365 1834 2165 2046 1662 1931 2010 1872 1711 1634 1177 768 800 737 454 123 9 0 0 0 0 0 0 0 0 0 0 0 0 0 0 0 0 0
668 1112 310 269 362 765 659 637 837 1071 1240 1775 2110 1679 1574 1534 1366 1180 1080 788 926 814 787 626 394 91 0 0 0 0 0 0 0 0 0 0 0 0 0 0 0 0 0 0
33 420 447 812 1014 985 1105 952 688 974 1209 1242 2079 1469 935 1035 1084 1327 1277 1115 983 981 916 534 252 1 0 0 0 0 0 0 0 0 0 0 0 0 0 0 0 0 0 0